Location: Unspecified
(0.0000°N, 0.0000°E)
Time: 11:44:04
(UTC+00:00)

S-56A Canister/Altair - Pass Details

Date: 30 November 2023
Orbit: 640 x 2488 km, 38.9° (Epoch: 24 February)

Event Time Altitude Azimuth Distance (km) Brightness Sun altitude
Rises 22:32:37 0° 291° (WNW) 5,024 11.8 -61.4°
Enters shadow 22:33:58 - 288° (WNW) 4,697 11.6 -61.6°
Exits shadow 22:55:56 23° 163° (SSE) 4,115 11.2 -64.8°
Drops below altitude 10° 23:00:56 10° 151° (SSE) 5,151 11.8 -65.3°
Sets 23:05:20 0° 144° (SE) 6,129 12.3 -65.8°
